Weather History for Sussex, NJ

Change the Weather History Date:

Sunday, December 15, 2013

  Actual Average Record
Temperature  
Mean Temperature 27 °F -  
Max Temperature 36 °F 38 °F 61 °F (2008)
Min Temperature 18 °F 19 °F -2 °F (2005)
Degree Days  
Heating Degree Days 38    
Moisture  
Dew Point 22 °F    
Average Humidity 82    
Maximum Humidity 100    
Minimum Humidity 57    
Precipitation  
Precipitation 0.25 in - - ()
Sea Level Pressure  
Sea Level Pressure 29.65 in    
Wind  
Wind Speed 7 mph (East)    
Max Wind Speed 14 mph    
Max Gust Speed 24 mph    
Visibility 8 miles    
Events Rain , Snow    
Averages and records for this station are not official NWS values.
T = Trace of Precipitation, MM = Missing Value Source: NWS Daily Summary

Daily Weather History Graph

Daily Weather History Graph

Search for Another Location

Airport:

Trip Planner

Search our weather history database for the weather conditions in past years. The results will help you decide how hot, cold, wet, or windy it might be!

Date:

Astronomy

Dec. 15, 2013 Rise Set
Actual Time 7:17 AM EST 4:30 PM EST
Civil Twilight 6:45 AM EST 5:01 PM EST
Nautical Twilight 6:11 AM EST 5:36 PM EST
Astronomical Twilight 5:37 AM EST 6:10 PM EST
Moon 3:33 PM EST (12/15) 5:30 AM EST (12/15)
Length of Visible Light 10h 15m
Length of Day
9h 13m
Waxing Gibbous, 97% of the Moon is Illuminated
Dec 15
Waxing Gibbous
Dec 17
Full
Dec 25
Last Quarter
Jan 1
New
Jan 7
First Quarter

Hourly Weather History & Observations

Time (EST) Temp. Windchill Dew Point Humidity Pressure Visibility Wind Dir Wind Speed Gust Speed Precip Events Conditions
12:53 AM 18.0 °F 4.2 °F 15.1 °F 88% 29.78 in 1.2 mi NE 13.8 mph 24.2 mph 0.11 in   Overcast
1:24 AM 19.0 °F 6.1 °F 15.1 °F 85% 29.71 in 0.8 mi NE 12.7 mph - 0.05 in Snow Light Snow
1:53 AM 19.0 °F 6.1 °F 16.0 °F 88% 29.72 in 1.0 mi NE 12.7 mph - 0.07 in Snow Light Snow
2:53 AM 19.9 °F 14.9 °F 18.0 °F 92% 29.67 in 1.5 mi NNE 3.5 mph - 0.05 in Snow Light Snow
3:07 AM 21.0 °F 14.6 °F 18.0 °F 88% 29.65 in 2.0 mi ENE 4.6 mph - 0.00 in   Overcast
3:25 AM 21.0 °F 10.6 °F 19.0 °F 92% 29.61 in 2.0 mi ENE 9.2 mph - 0.01 in Rain Light Freezing Rain
3:44 AM 21.9 °F 14.5 °F 19.9 °F 92% 29.61 in 2.5 mi ENE 5.8 mph - 0.01 in Rain Light Freezing Rain
3:53 AM 21.9 °F 14.5 °F 19.9 °F 92% 29.62 in 2.5 mi ENE 5.8 mph - 0.01 in   Overcast
3:55 AM 21.9 °F 13.4 °F 19.9 °F 92% 29.60 in 3.0 mi East 6.9 mph - N/A   Overcast
4:34 AM 23.0 °F 17.0 °F 21.0 °F 92% 29.58 in 5.0 mi ENE 4.6 mph - 0.01 in   Overcast
4:53 AM 24.1 °F 17.0 °F 21.9 °F 91% 29.61 in 8.0 mi NNE 5.8 mph - 0.01 in   Overcast
5:11 AM 24.1 °F 16.0 °F 21.9 °F 91% 29.58 in 8.0 mi NE 6.9 mph - N/A   Overcast
5:53 AM 25.0 °F 17.1 °F 23.0 °F 92% 29.57 in 8.0 mi ENE 6.9 mph - N/A   Overcast
6:53 AM 25.0 °F - 23.0 °F 92% 29.60 in 10.0 mi Calm Calm - N/A   Overcast
7:16 AM 25.0 °F - 24.1 °F 96% 29.57 in 10.0 mi Calm Calm - N/A   Overcast
7:53 AM 24.1 °F 19.7 °F 24.1 °F 100% 29.60 in 6.0 mi South 3.5 mph - N/A   Overcast
8:53 AM 25.0 °F 20.7 °F 24.1 °F 96% 29.60 in 10.0 mi SSW 3.5 mph - N/A   Overcast
9:14 AM 26.1 °F 21.9 °F 25.0 °F 96% 29.57 in 10.0 mi South 3.5 mph - N/A   Overcast
9:31 AM 27.0 °F - 25.0 °F 92% 29.57 in 10.0 mi Calm Calm - N/A   Overcast
9:45 AM 27.0 °F - 26.1 °F 96% 29.56 in 10.0 mi Calm Calm - N/A   Overcast
9:53 AM 28.0 °F 24.2 °F 27.0 °F 96% 29.58 in 10.0 mi South 3.5 mph - N/A   Overcast
10:32 AM 30.0 °F 26.5 °F 28.0 °F 92% 29.58 in 10.0 mi SSW 3.5 mph - N/A   Mostly Cloudy
10:53 AM 30.9 °F 24.3 °F 28.0 °F 89% 29.59 in 10.0 mi SW 6.9 mph - N/A   Overcast
11:53 AM 35.1 °F 27.9 °F 28.0 °F 76% 29.60 in 10.0 mi West 9.2 mph - N/A   Overcast
12:53 PM 36.0 °F 28.0 °F 27.0 °F 70% 29.61 in 10.0 mi West 11.5 mph 18.4 mph N/A   Overcast
1:53 PM 35.1 °F 25.9 °F 26.1 °F 70% 29.63 in 10.0 mi West 13.8 mph 23.0 mph N/A   Overcast
2:27 PM 36.0 °F 32.1 °F 25.0 °F 64% 29.63 in 10.0 mi Variable 4.6 mph - N/A   Overcast
2:53 PM 36.0 °F 33.3 °F 25.0 °F 64% 29.66 in 10.0 mi Variable 3.5 mph - N/A   Overcast
3:53 PM 35.1 °F 32.2 °F 24.1 °F 64% 29.69 in 10.0 mi Variable 3.5 mph - N/A   Scattered Clouds
4:53 PM 35.1 °F 31.0 °F 24.1 °F 64% 29.72 in 10.0 mi SW 4.6 mph - N/A   Overcast
5:53 PM 34.0 °F - 24.1 °F 67% 29.73 in 10.0 mi Calm Calm - N/A   Mostly Cloudy
6:53 PM 34.0 °F - 24.1 °F 67% 29.76 in 10.0 mi North - - N/A   Overcast
7:53 PM 33.1 °F 26.1 °F 21.0 °F 61% 29.78 in 10.0 mi WSW 8.1 mph - N/A   Mostly Cloudy
8:53 PM 30.9 °F 24.3 °F 19.0 °F 61% 29.79 in 10.0 mi Variable 6.9 mph - N/A   Overcast
9:53 PM 30.9 °F 25.2 °F 17.1 °F 57% 29.80 in 10.0 mi Variable 5.8 mph 19.6 mph N/A   Overcast
10:53 PM 30.9 °F 23.5 °F 19.0 °F 61% 29.81 in 10.0 mi WSW 8.1 mph - N/A   Mostly Cloudy
11:53 PM 30.9 °F 22.2 °F 19.0 °F 61% 29.81 in 10.0 mi WSW 10.4 mph 18.4 mph N/A   Overcast